DIRECTV 12

导读

DIRECTV 12是由美国于2009年12月29日发射的通信卫星,隶属于美国DirecTV集团,主要为北美地区提供高清数字电视直播服务,补充和增强该区域卫星电视传输容量,满足用户对更多频道、更高画质内容的收视需求,该卫星定点于地球静止轨道,依托强大的转发器能力,持续为家庭和商业用户提供稳定的卫星广播电视信号传输服务。

基本信息
目录编号:
36131
目录名称:
DIRECTV 12
国际标识:
2009-075A
轨道中心:
EARTH
卫星名称:
DIRECTV 12
卫星全名:
--
卫星状态:
在轨 (已飞行6041 天)
发射日期:
2009-12-29 UTC
国别 :
美国 (US)
星等 :
--
轨道信息
数据来源 国际轨道数据 AOE轨道数据
星历时间 2026-07-13T05:34:40+0800
1天前
查看轨道信息
2026-07-14T12:00:00+0800
3小时前
查看轨道信息
半长轴 42164.953km 42164.953km
偏心率 0.0000376 0.0000361
轨道倾角 0.006° 0.012°
近地点辐角 110.528° 99.060°
升交点赤经 118.154° 127.250°
平近点角 283.037° 22.986°
近地点 35785.23km 35785.293km
远地点 35788.402km 35788.339km
周期 1436.108分钟 1436.108分钟
每日圈数 1.00271 1.00271
详细信息
使用方式:
暂无
2D轨道图
3D轨道图
轨道高度分析图
轨道倾角分析图
轨道综合分析图
查看轨道综合分析图